Location: Cardiff
(53.7833°N, 113.6000°W)
Time: 22:52:07
(UTC+00:00)

Oscar 19 - Pass Details

Date: 06 December 2023
Orbit: 771 x 789 km, 98.9° (Epoch: 04 March)

Event Time Altitude Azimuth Distance (km) Brightness Sun altitude
Rises 11:26:41 0° 23° (NNE) 3,274 14.3 -35.4°
Reaches altitude 10° 11:29:22 10° 36° (NE) 2,345 13.6 -35.0°
Maximum altitude 11:33:42 27° 93° (E) 1,486 12.6 -34.3°
Drops below altitude 10° 11:38:02 10° 150° (SSE) 2,340 13.3 -33.7°
Sets 11:40:41 0° 163° (SSE) 3,266 14.0 -33.3°
